{"data":{"norad_id":65217,"epoch":"2026-05-25T01:11:33.553824Z","epoch_age_seconds":70619,"freshness":"FRESH","line1":"1 65217U 25176V   26145.04969391  .00017289  00000+0  52148-3 0  9990","line2":"2 65217  53.1586 157.1841 0000986  79.0779 281.0334 15.34409352 44825","mean_motion":15.34409352,"eccentricity":9.86e-5,"inclination_deg":53.1586,"raan_deg":157.1841,"arg_perigee_deg":79.0779,"mean_anomaly_deg":281.0334,"bstar":0.00052148,"rev_number":4482,"period_min":93.847186093011,"perigee_km":462.00094012644,"apogee_km":463.34994834044,"semimajor_km":6840.8124442334,"source":"CELESTRAK","updated_at":"2026-05-25T13:38:20.721687Z"}}